Location: Charbonni�res
(45.9952°N, 2.9982°E)
Time: 14:35:43
(UTC+00:00)

Cosmos 1680 Rocket - Visible Passes

Search period start: 20 April 2021 00:00
Search period end: 30 April 2021 00:00
Orbit: 760 x 781 km, 74.1° (Epoch: 20 April)

Date Brightness Start Highest point End Pass type
(mag) Time Alt. Az. Time Alt. Az. Time Alt. Az.
20 Apr 4.9 01:15:25 10° N 01:20:16 35° ENE 01:23:26 19° ESE visible
20 Apr 4.1 02:57:34 10° NW 03:02:21 35° WSW 03:03:40 31° SW visible
21 Apr 5.6 00:39:27 10° N 00:43:40 23° NE 00:46:49 14° E visible
21 Apr 3.5 02:20:58 10° NNW 02:26:10 58° WSW 02:27:04 50° SW visible
22 Apr 6.0 00:03:45 10° N 00:06:58 16° NE 00:10:10 10° E visible
22 Apr 3.4 01:44:33 10° NNW 01:49:54 88° ENE 01:50:39 67° SSE visible
22 Apr 5.3 03:28:54 10° WNW 03:30:55 13° W 03:30:55 13° W visible
22 Apr 6.3 23:28:57 10° NNE 23:30:09 11° NE 23:31:21 10° NE visible
23 Apr 4.0 01:08:17 10° NNW 01:13:31 56° ENE 01:14:21 50° E visible
23 Apr 4.9 02:51:16 10° NW 02:54:37 21° W 02:54:37 21° W visible
24 Apr 4.8 00:32:09 10° N 00:37:02 36° ENE 00:38:09 32° E visible
24 Apr 4.3 02:14:20 10° NW 02:18:26 33° W 02:18:26 33° W visible
24 Apr 5.4 23:56:11 10° N 00:00:27 24° NE 00:02:02 21° E visible
25 Apr 3.8 01:37:44 10° NNW 01:42:19 53° WNW 01:42:19 53° WNW visible
25 Apr 5.8 23:20:28 10° N 23:23:45 16° NE 23:25:59 13° ENE visible
26 Apr 3.5 01:01:18 10° NNW 01:06:15 77° NNW 01:06:15 77° NNW visible
26 Apr 5.6 02:45:48 10° WNW 02:46:33 11° WNW 02:46:33 11° WNW visible
26 Apr 6.2 22:45:30 10° NNE 22:46:57 11° NE 22:48:22 10° ENE visible
27 Apr 3.9 00:25:01 10° NNW 00:30:15 57° ENE 00:30:15 57° ENE visible
27 Apr 5.2 02:08:04 10° NW 02:10:33 19° WNW 02:10:33 19° WNW visible
27 Apr 4.6 23:48:53 10° N 23:53:48 37° ENE 23:54:17 36° ENE visible
28 Apr 4.7 01:31:08 10° NW 01:34:34 29° WNW 01:34:34 29° WNW visible
28 Apr 5.2 23:12:54 10° N 23:17:14 24° NE 23:18:21 23° ENE visible
29 Apr 4.1 00:54:30 10° NNW 00:58:39 46° WNW 00:58:39 46° WNW visible
29 Apr 5.7 22:37:10 10° N 22:40:33 17° NE 22:42:28 14° ENE visible
